Menomonie, WI

8:18 PM CST on January 20, 2017 (GMT -0600)
Menomonie

Weather History for KLUM - January, 2014

Change the Weather History Date:

Tuesday, January 14, 2014

  Actual Average (KEAU) Record (KEAU)
Temperature  
Mean Temperature 16 °F -  
Max Temperature 26 °F 21 °F 42 °F (1914)
Min Temperature 7 °F 1 °F -29 °F (1893)
Degree Days  
Heating Degree Days 48    
Moisture  
Dew Point 15 °F    
Average Humidity 83    
Maximum Humidity 95    
Minimum Humidity 68    
Precipitation  
Precipitation 0.06 in - - ()
Sea Level Pressure  
Sea Level Pressure 29.75 in    
Wind  
Wind Speed 12 mph (NNW)    
Max Wind Speed 21 mph    
Max Gust Speed 26 mph    
Visibility 5 miles    
Events Snow    
Averages and records for this station are not official NWS values.
T = Trace of Precipitation, MM = Missing Value Source: NWS Daily Summary

Daily Weather History Graph

Daily Weather History Graph

Search for Another Location

Airport or City:

Trip Planner

Search our weather history database for the weather conditions in past years. The results will help you decide how hot, cold, wet, or windy it might be!

Date:

Astronomy

Jan. 14, 2014 Rise Set
Actual Time 7:42 AM CST 4:51 PM CST
Civil Twilight 7:09 AM CST 5:24 PM CST
Nautical Twilight 6:33 AM CST 6:00 PM CST
Astronomical Twilight 5:58 AM CST 6:35 PM CST
Moon 3:58 PM CST (1/14) 6:15 AM CST (1/14)
Length of Visible Light 10h 14m
Length of Day
9h 09m
Waxing Gibbous, 98% of the Moon is Illuminated
Jan 14
Waxing Gibbous
Jan 15
Full
Jan 23
Last Quarter
Jan 30
New
Feb 6
First Quarter

Hourly Weather History & Observations

Time (CST) Temp. Windchill Dew Point Humidity Pressure Visibility Wind Dir Wind Speed Gust Speed Precip Events Conditions
12:15 AM 23.7 °F 14.0 °F 21.4 °F 91% 29.58 in 2.5 mi East 9.2 mph - N/A Snow Light Snow
12:35 AM 23.9 °F 15.8 °F 21.9 °F 92% 29.56 in 7.0 mi East 6.9 mph - N/A Snow Light Snow
12:55 AM 24.8 °F 16.9 °F 22.3 °F 90% 29.56 in 7.0 mi ESE 6.9 mph - N/A   Overcast
1:15 AM 24.8 °F 16.9 °F 22.1 °F 89% 29.56 in 10.0 mi East 6.9 mph - N/A   Overcast
1:35 AM 25.2 °F 16.5 °F 22.1 °F 88% 29.54 in 10.0 mi East 8.1 mph - N/A   Overcast
1:55 AM 24.8 °F 16.9 °F 22.1 °F 89% 29.54 in 7.0 mi ENE 6.9 mph - N/A   Overcast
2:15 AM 24.8 °F 16.1 °F 22.1 °F 89% 29.53 in 2.5 mi ENE 8.1 mph - N/A Snow Light Snow
2:35 AM 25.2 °F 17.3 °F 22.8 °F 91% 29.53 in 2.0 mi ENE 6.9 mph - N/A Snow Light Snow
2:55 AM 25.2 °F 16.5 °F 23.0 °F 91% 29.52 in 2.0 mi ENE 8.1 mph - N/A Snow Light Snow
3:15 AM 25.5 °F 16.9 °F 23.7 °F 93% 29.52 in 1.5 mi East 8.1 mph - N/A Snow Light Snow
3:35 AM 25.7 °F 17.1 °F 23.9 °F 93% 29.50 in 1.2 mi ENE 8.1 mph - N/A Snow Light Snow
3:55 AM 25.7 °F 16.4 °F 24.3 °F 94% 29.50 in 1.2 mi East 9.2 mph - 0.01 in Snow Light Snow
4:15 AM 26.1 °F 16.2 °F 24.6 °F 94% 29.49 in 1.5 mi ENE 10.4 mph - N/A Snow Light Snow
4:35 AM 26.1 °F 16.2 °F 24.4 °F 94% 29.48 in 1.8 mi ENE 10.4 mph - N/A Snow Light Snow
4:55 AM 26.4 °F 18.9 °F 24.8 °F 94% 29.48 in 1.2 mi ENE 6.9 mph - N/A Snow Snow
5:15 AM 26.2 °F 19.6 °F 24.8 °F 94% 29.48 in 1.0 mi NE 5.8 mph - 0.01 in Snow Snow
5:35 AM 26.1 °F 19.4 °F 24.6 °F 94% 29.48 in 0.8 mi NE 5.8 mph - 0.02 in Snow Snow
5:55 AM 25.7 °F 17.1 °F 24.4 °F 95% 29.49 in 1.2 mi NNE 8.1 mph - 0.02 in Snow Light Snow
6:15 AM 25.9 °F 18.2 °F 24.4 °F 94% 29.49 in 1.2 mi North 6.9 mph - 0.01 in Snow Light Snow
6:35 AM 25.5 °F 14.9 °F 23.9 °F 94% 29.50 in 1.0 mi North 11.5 mph - 0.01 in Snow Snow
6:55 AM 24.8 °F 12.9 °F 23.4 °F 94% 29.51 in 0.8 mi North 13.8 mph - 0.02 in Snow Snow
7:15 AM 24.4 °F 11.5 °F 22.8 °F 94% 29.52 in 0.8 mi North 16.1 mph 19.6 mph N/A Snow Snow
7:35 AM 23.9 °F 9.9 °F 22.1 °F 93% 29.53 in 1.0 mi North 18.4 mph 23.0 mph 0.01 in Snow Snow
7:55 AM 23.9 °F 9.9 °F 21.9 °F 92% 29.55 in 1.0 mi NNW 18.4 mph 21.9 mph 0.01 in Snow Snow
8:15 AM 23.7 °F 8.9 °F 21.7 °F 92% 29.56 in 1.0 mi North 20.7 mph 24.2 mph N/A Snow Snow
8:35 AM 23.5 °F 9.9 °F 21.2 °F 91% 29.59 in 1.0 mi NNW 17.3 mph 24.2 mph N/A Snow Light Snow
8:55 AM 23.5 °F 9.4 °F 21.0 °F 90% 29.60 in 1.2 mi NNW 18.4 mph 25.3 mph N/A Snow Light Snow
9:15 AM 23.0 °F 10.1 °F 20.8 °F 91% 29.63 in 1.2 mi NNW 15.0 mph 20.7 mph N/A Snow Light Snow
9:35 AM 23.0 °F 9.6 °F 20.7 °F 91% 29.65 in 1.0 mi NNW 16.1 mph - N/A Snow Light Snow
9:55 AM 22.8 °F 9.4 °F 19.9 °F 89% 29.67 in 0.8 mi NW 16.1 mph 23.0 mph N/A Snow Light Snow
10:15 AM 22.6 °F 9.2 °F 19.9 °F 89% 29.68 in 0.5 mi NW 16.1 mph 25.3 mph N/A Snow Snow
10:35 AM 22.1 °F 8.5 °F 19.4 °F 89% 29.70 in 0.5 mi NNW 16.1 mph 23.0 mph N/A Snow Light Snow
10:55 AM 22.1 °F 8.5 °F 18.9 °F 87% 29.71 in 0.8 mi NW 16.1 mph 19.6 mph N/A Snow Light Snow
11:15 AM 21.9 °F 8.2 °F 18.5 °F 87% 29.72 in 0.8 mi NW 16.1 mph 25.3 mph N/A Snow Light Snow
11:35 AM 21.7 °F 7.5 °F 18.1 °F 86% 29.73 in 0.8 mi NW 17.3 mph 26.5 mph N/A Snow Light Snow
11:55 AM 21.7 °F 8.0 °F 17.6 °F 84% 29.74 in 1.0 mi NW 16.1 mph - N/A Snow Light Snow
12:15 PM 21.7 °F 7.5 °F 17.4 °F 83% 29.75 in 1.2 mi NW 17.3 mph 23.0 mph N/A Snow Light Snow
12:35 PM 21.9 °F 7.8 °F 17.4 °F 83% 29.75 in 1.5 mi NW 17.3 mph 21.9 mph N/A Snow Light Snow
12:55 PM 21.9 °F 8.2 °F 17.1 °F 82% 29.77 in 1.8 mi NW 16.1 mph 21.9 mph N/A Snow Light Snow
1:15 PM 21.2 °F 6.8 °F 16.2 °F 81% 29.78 in 1.8 mi NW 17.3 mph 26.5 mph N/A Snow Light Snow
1:35 PM 20.8 °F 5.9 °F 15.8 °F 81% 29.79 in 1.5 mi NW 18.4 mph 23.0 mph N/A Snow Light Snow
1:55 PM 20.1 °F 4.2 °F 14.9 °F 80% 29.80 in 1.5 mi NW 20.7 mph 25.3 mph N/A Snow Light Snow
2:15 PM 19.8 °F 4.5 °F 14.7 °F 81% 29.82 in 1.5 mi NW 18.4 mph 25.3 mph N/A Snow Light Snow
2:35 PM 19.4 °F 5.5 °F 14.4 °F 81% 29.83 in 1.5 mi WNW 15.0 mph 20.7 mph N/A Snow Light Snow
2:55 PM 19.0 °F 5.6 °F 14.0 °F 81% 29.85 in 2.0 mi NW 13.8 mph 19.6 mph N/A Snow Light Snow
3:15 PM 19.0 °F 4.5 °F 12.4 °F 75% 29.86 in 5.0 mi NW 16.1 mph 25.3 mph N/A   Haze
3:35 PM 19.0 °F 3.2 °F 12.0 °F 74% 29.88 in 7.0 mi NW 19.6 mph 23.0 mph N/A   Overcast
3:55 PM 18.5 °F 2.9 °F 11.5 °F 74% 29.89 in 5.0 mi NW 18.4 mph 24.2 mph N/A Snow Light Snow
4:15 PM 18.3 °F 2.2 °F 11.1 °F 73% 29.90 in 10.0 mi NW 19.6 mph 23.0 mph N/A   Overcast
4:35 PM 17.8 °F 1.9 °F 10.4 °F 73% 29.91 in 10.0 mi NW 18.4 mph 24.2 mph N/A   Mostly Cloudy
4:55 PM 17.2 °F 1.7 °F 10.0 °F 73% 29.93 in 10.0 mi NW 17.3 mph 23.0 mph N/A   Mostly Cloudy
5:15 PM 16.7 °F 3.2 °F 9.3 °F 73% 29.94 in 10.0 mi NW 12.7 mph 21.9 mph N/A   Scattered Clouds
5:35 PM 16.5 °F 2.4 °F 9.0 °F 72% 29.95 in 10.0 mi NW 13.8 mph - N/A   Mostly Cloudy
5:55 PM 16.2 °F 1.3 °F 8.4 °F 72% 29.95 in 10.0 mi NW 15.0 mph 20.7 mph N/A   Mostly Cloudy
6:15 PM 15.8 °F 2.7 °F 8.1 °F 72% 29.96 in 10.0 mi NW 11.5 mph - N/A   Overcast
6:35 PM 14.9 °F -1.3 °F 7.0 °F 71% 29.97 in 10.0 mi WNW 17.3 mph 20.7 mph N/A   Overcast
6:55 PM 14.2 °F -2.3 °F 5.9 °F 70% 29.98 in 10.0 mi WNW 17.3 mph - N/A   Mostly Cloudy
7:15 PM 13.8 °F -3.7 °F 5.5 °F 70% 29.99 in 10.0 mi NW 19.6 mph - N/A   Overcast
7:35 PM 13.5 °F -2.1 °F 5.0 °F 69% 30.00 in 10.0 mi NW 15.0 mph - N/A   Mostly Cloudy
7:55 PM 12.9 °F -2.8 °F 4.1 °F 68% 30.00 in 10.0 mi NW 15.0 mph 20.7 mph N/A   Scattered Clouds
8:15 PM 12.9 °F -2.8 °F 4.1 °F 68% 30.01 in 10.0 mi NW 15.0 mph - N/A   Scattered Clouds
8:55 PM 11.5 °F -2.7 °F 2.7 °F 68% 30.02 in 10.0 mi NW 11.5 mph - N/A   Clear
9:15 PM 10.9 °F -3.4 °F 2.3 °F 68% 30.03 in 10.0 mi WNW 11.5 mph 17.3 mph N/A   Clear
9:35 PM 10.4 °F -3.3 °F 2.3 °F 70% 30.03 in 10.0 mi NW 10.4 mph - N/A   Clear
9:55 PM 9.9 °F -2.2 °F 1.6 °F 69% 30.03 in 10.0 mi NW 8.1 mph - N/A   Clear
10:15 PM 9.5 °F -3.5 °F 1.4 °F 70% 30.05 in 10.0 mi NW 9.2 mph - N/A   Clear
10:35 PM 9.5 °F -3.5 °F 1.4 °F 70% 30.05 in 10.0 mi WNW 9.2 mph - N/A   Clear
10:55 PM 9.5 °F -2.6 °F 1.2 °F 69% 30.05 in 10.0 mi WNW 8.1 mph - N/A   Mostly Cloudy
11:15 PM 8.6 °F -2.6 °F 0.9 °F 71% 30.05 in 10.0 mi West 6.9 mph - N/A   Scattered Clouds
11:35 PM 7.3 °F -5.2 °F -0.2 °F 71% 30.05 in 10.0 mi WNW 8.1 mph - N/A   Clear
11:55 PM 7.3 °F -5.2 °F 0.3 °F 73% 30.04 in 10.0 mi WNW 8.1 mph - N/A   Clear